CAPE
3029 3149 3110 3392 3484 2947 2969 2458 2084 2385 2002 2318 1858 1247 959 908 843 682 13 0 0 0 0 0 0 0 0 0 0 0 0 0 0 0 0 0 0 0 0 0 0 0 0
2766 2894 3012 3217 3167 3116 2886 2715 2553 2597 2404 2295 2274 1479 1162 832 762 544 3 0 0 0 0 0 0 0 0 0 0 0 0 0 0 0 0 0 0 0 0 0 0 0 0
2523 2728 2856 3148 3024 2957 2783 2789 2699 2920 2768 2376 2105 1620 1237 724 566 253 0 0 0 0 0 0 0 0 0 0 0 0 0 0 0 0 0 0 0 0 0 0 0 0 0
2334 2466 2527 2978 3091 2998 2995 2797 2733 3082 2467 2314 2073 1621 1062 710 542 0 0 0 0 0 0 0 0 0 0 0 0 0 0 0 0 0 0 0 0 1 0 0 0 0 0
2787 2789 2854 3104 3202 3158 3186 2758 3242 3014 2591 2354 1831 1290 1013 737 95 0 0 0 0 0 0 0 0 0 0 0 0 0 0 0 0 0 0 0 0 0 0 0 0 0 0
3012 3096 3216 3011 3052 3097 2967 3161 3143 2966 2551 2200 1646 1306 695 351 9 0 0 0 0 0 0 0 0 0 0 0 0 0 0 0 0 0 0 0 0 0 0 0 0 0 0
3151 2976 3081 3533 3299 3296 3203 3211 2842 2465 2311 2139 1647 947 500 275 0 0 0 0 0 0 0 0 0 0 0 0 0 0 0 0 0 0 0 0 0 0 0 0 0 0 0
3346 3233 3243 3173 3060 3217 3085 3057 2708 2388 2201 1789 1365 717 492 7 0 0 0 0 0 0 0 0 0 0 0 0 0 0 0 0 0 0 0 0 0 0 0 0 0 0 0
3544 3513 2910 2847 3519 3272 2924 2876 2663 2279 1992 1376 1022 673 533 12 0 0 0 0 0 0 0 0 0 0 0 0 0 0 0 0 0 0 0 0 0 0 0 0 0 0 0
3251 3136 2748 1593 1634 3277 2976 2991 2575 2205 1703 1140 940 598 555 47 0 0 0 0 0 0 0 0 0 0 0 0 0 0 0 10 0 0 0 0 0 0 0 0 0 0 0
3572 3422 3265 2503 846 1126 3052 2708 2284 1952 1561 990 859 631 190 5 0 0 0 0 0 0 0 0 0 0 0 0 0 0 0 0 0 0 1 21 33 8 1 0 0 0 0
3578 3352 3109 3213 2845 2823 2609 2750 2309 1805 1334 738 431 355 280 12 0 0 0 0 0 0 0 0 0 0 0 0 0 0 0 0 0 0 0 28 5 0 0 0 0 0 0
3061 3299 3799 3605 3504 3131 2990 2407 2145 1552 937 406 7 1 51 113 0 0 0 0 0 0 0 0 0 0 0 0 0 0 0 0 0 0 17 3 0 0 0 2 7 3 0
3067 3045 3358 3834 3680 3250 2883 2346 1776 1431 893 443 151 6 112 122 0 0 0 0 0 0 0 0 0 0 0 0 0 0 0 0 0 3 0 0 3 14 0 0 0 0 0
2798 3039 3229 2868 2541 2367 1938 1495 1463 1117 821 589 187 157 397 219 8 0 0 0 0 0 0 0 0 0 0 0 0 0 0 0 0 1 1 11 24 18 0 0 0 0 0
2645 2580 2282 1698 1577 1487 1374 774 68 300 190 212 159 367 446 226 5 0 0 0 0 0 0 0 0 0 0 0 0 0 0 7 21 27 23 23 20 15 0 0 0 1 3
2223 1749 1648 1023 974 919 754 596 524 18 0 0 1 1 2 37 0 0 0 0 0 0 0 0 0 0 0 0 0 0 1 27 27 27 24 20 34 18 5 13 16 16 21
1639 1272 1541 969 612 643 604 413 307 127 48 0 0 0 0 0 0 0 0 0 0 0 0 0 0 0 0 0 0 0 0 20 26 45 40 30 13 0 0 2 7 13 5
1801 1436 1398 1223 1033 486 268 150 67 31 8 3 0 0 0 0 0 0 0 0 0 0 0 0 0 0 0 0 0 0 0 4 2 1 0 9 22 9 5 0 3 5 5
1711 1292 1278 881 286 13 3 0 2 11 2 2 0 0 0 0 0 0 0 0 0 0 0 0 0 0 0 0 0 0 0 0 0 5 5 20 6 5 1 1 8 4 12
1445 1015 536 222 0 0 0 0 0 0 1 1 3 0 0 0 0 0 0 0 0 0 0 0 0 0 0 0 4 0 0 0 12 23 30 13 16 11 3 6 9 11 0
1429 1275 372 150 0 0 0 0 0 2 1 1 1 0 0 0 0 0 0 0 0 0 0 0 0 0 0 0 0 0 2 16 27 28 13 4 9 20 9 6 5 0 0
1428 1035 413 215 0 0 0 1 2 4 2 3 3 0 0 0 0 0 0 0 0 0 0 0 0 0 0 0 0 9 15 9 16 12 19 9 24 18 1 1 0 0 0
1208 913 435 136 55 40 9 2 2 3 2 3 1 0 0 0 0 0 0 0 0 0 0 0 0 0 0 0 0 6 15 27 23 16 0 0 0 0 0 0 0 0 0
739 907 796 271 10 57 85 31 1 2 2 3 0 0 0 0 0 0 0 0 0 0 0 0 0 0 0 0 6 3 0 20 21 2 0 0 0 0 0 0 0 0 0
1035 898 952 344 144 90 82 74 16 0 1 0 0 0 0 0 0 0 0 0 0 0 0 0 0 0 0 0 0 9 0 0 0 0 0 0 0 0 0 0 0 0 0
CIN
-59 -67 -70 -53 -48 -39 -25 -33 -37 -6 -14 -10 -20 -31 -25 -4 -5 -11 -34 0 0 0 0 0 0 0 0 0 0 0 0 0 0 0 0 0 0 0 0 0 0 0 0
-79 -77 -73 -60 -51 -56 -38 -37 -38 -8 -14 -13 -10 -22 -11 -2 -5 -11 -9 0 0 0 0 0 0 0 0 0 0 0 0 0 0 0 0 0 0 0 0 0 0 0 0
-67 -59 -67 -63 -61 -61 -65 -38 -42 -8 -13 -14 -6 -8 -3 -5 -6 -20 0 0 0 0 0 0 0 0 0 0 0 0 0 0 0 0 0 0 0 0 0 0 0 0 0
-38 -54 -59 -68 -71 -65 -63 -55 -31 -10 -23 -12 -7 -4 -4 -3 -9 0 0 0 0 0 0 0 0 0 0 0 0 0 0 0 0 0 0 0 0 -2 0 0 0 0 0
-11 -9 -8 -25 -28 -37 -11 -33 -2 -14 -19 -12 -10 -11 -7 -9 -207 0 0 0 0 0 0 0 0 0 0 0 0 0 0 0 0 0 0 0 0 0 0 0 0 0 0
-32 -16 -13 -43 -64 -65 -46 -2 -3 -6 -12 -29 -41 -26 -62 -114 -206 0 0 0 0 0 0 0 0 0 0 0 0 0 0 0 0 0 0 0 0 0 0 0 0 0 0
-22 -46 -30 -15 -38 -41 -24 -7 -16 -26 -5 -1 -51 -95 -130 -190 0 0 0 0 0 0 0 0 0 0 0 0 0 0 0 0 0 0 0 0 0 0 0 0 0 0 0
-69 -114 -115 -88 -110 -91 -49 -19 -17 -15 -33 -2 -30 -94 -124 -445 0 0 0 0 0 0 0 0 0 0 0 0 0 0 0 0 0 0 0 0 0 0 0 0 0 0 0
-47 -54 -148 -156 -22 -30 -51 -57 -63 -17 -20 -33 -53 -111 -132 -489 0 0 0 0 0 0 0 0 0 0 0 0 0 0 0 0 0 0 0 0 0 0 0 0 0 0 0
-38 -55 -107 -251 -200 -20 -25 -3 -16 -1 -37 -84 -47 -57 -68 -417 0 0 0 0 0 0 0 0 0 0 0 0 0 0 0 -8 0 0 0 0 0 0 0 0 0 0 0
-12 -20 -44 -106 -283 -228 -10 -52 -30 -9 -8 -23 -4 -27 -60 -228 0 0 0 0 0 0 0 0 0 0 0 0 0 0 0 0 0 0 -10 -27 -35 -48 -13 0 0 0 0
-6 -2 -12 -35 -62 -52 -70 -18 -6 -32 -13 -13 -33 0 -7 -210 0 0 0 0 0 0 0 0 0 0 0 0 0 0 0 0 0 0 -2 -8 -16 0 0 0 0 0 0
-30 -14 -1 -5 -9 -21 -2 -15 -22 -45 -63 -71 -8 -18 -91 -91 0 0 0 0 0 0 0 0 0 0 0 0 0 0 0 0 0 0 -11 -11 0 0 0 -3 -10 -13 -5
-26 -32 -9 -2 -2 -2 -4 -9 -41 -51 -62 -110 -182 -307 -157 -172 0 0 0 0 0 0 0 0 0 0 0 0 0 0 0 0 0 -8 0 0 0 -3 -1 0 0 0 0
-25 -11 -10 -23 -17 -18 -21 -35 -33 -68 -111 -122 -217 -161 -48 -91 -301 0 0 0 0 0 0 0 0 0 0 0 0 0 0 0 0 -9 -6 -3 -3 -2 0 0 0 0 0
-9 -15 -43 -76 -63 -44 -42 -113 -376 -197 -216 -180 -155 -43 -20 -56 -171 0 0 0 0 0 0 0 0 0 0 0 0 0 0 -14 -16 -8 -7 -3 -6 -5 0 0 0 -6 -3
-7 -32 -48 -93 -100 -81 -79 -97 -89 -159 0 0 -7 -8 -208 -106 0 0 0 0 0 0 0 0 0 0 0 0 0 0 -2 -7 -15 -14 -11 -10 -6 -5 -11 -16 -11 -7 -4
-18 -34 -18 -81 -107 -87 -73 -80 -88 -146 -172 -61 0 0 0 0 0 0 0 0 0 0 0 0 0 0 0 0 0 0 0 -11 -10 -8 -5 -5 -10 -1 -5 -15 -20 -10 -10
-1 -6 -15 -3 -1 -39 -57 -73 -107 -133 -163 0 0 0 0 0 0 0 0 0 0 0 0 0 0 0 0 0 0 0 0 -5 -3 -4 -1 -10 -13 -22 -22 -5 -19 -13 -10
0 -41 -31 -26 -74 -154 -97 0 -1 -22 0 0 0 0 0 0 0 0 0 0 0 0 0 0 0 0 0 0 0 0 0 0 0 -6 -7 -9 -19 -24 -21 -19 -27 -12 -5
-1 -53 -90 -111 0 0 0 0 0 0 0 0 0 0 0 0 0 0 0 0 0 0 0 0 0 0 0 0 -5 0 0 0 -12 -12 -13 -21 -28 -23 -17 -20 -14 -9 0
0 -13 -110 -123 0 0 0 0 0 0 0 0 0 0 0 0 0 0 0 0 0 0 0 0 0 0 0 0 0 0 -3 -6 -4 -16 -16 -24 -9 -11 -16 -17 -12 0 0
-11 -46 -85 -84 0 0 0 0 0 0 0 0 0 0 0 0 0 0 0 0 0 0 0 0 0 0 0 0 0 -6 -3 -3 -6 -9 -9 -5 -10 -14 -5 -3 0 0 0
-3 -25 -91 -101 -71 -95 -122 0 0 0 0 0 0 0 0 0 0 0 0 0 0 0 0 0 0 0 0 0 -1 -2 -3 -6 -4 -6 0 -1 -1 0 0 0 0 0 0
-28 -7 -35 -78 -78 -98 -67 -48 0 0 0 0 0 0 0 0 0 0 0 0 0 0 0 0 0 0 0 0 -4 -25 -2 -31 -19 -27 0 -1 0 0 0 0 0 0 0
-6 -7 -17 -67 -64 -71 -86 -108 -76 0 0 0 0 0 0 0 0 0 0 0 0 0 0 0 0 0 0 0 0 -14 0 0 0 0 0 0 0 0 0 0 0 0 0
Wind_Speed
18 16 15 13 11 12 11 10 10 10 11 11 12 12 12 14 13 11 12 12 13 14 15 14 16 17 17 17 18 18 18 18 14 17 18 18 20 21 22 21 17 14 19
18 16 15 13 12 11 10 7 6 7 8 9 10 11 11 12 12 12 11 12 11 12 13 12 14 15 15 17 17 18 17 17 16 17 16 18 20 16 18 20 22 20 15
13 14 14 11 9 9 7 6 6 6 6 7 8 9 10 11 11 11 11 11 11 11 9 11 12 14 15 15 17 16 17 17 14 16 18 16 19 22 22 23 23 22 23
7 11 12 10 8 6 5 4 4 3 3 4 6 7 9 10 10 11 10 11 11 12 12 9 10 12 14 15 15 16 16 17 16 15 15 19 20 21 24 26 28 26 27
16 14 12 7 6 6 5 2 1 0 1 3 3 5 7 8 9 9 10 10 12 11 13 13 11 12 14 16 14 16 18 18 15 17 16 19 21 23 26 26 26 28 26
14 15 12 6 5 4 5 4 5 2 1 2 2 3 4 5 7 9 10 13 13 12 11 12 13 13 14 15 16 16 17 17 17 19 19 20 21 22 25 26 26 28 27
11 12 15 13 7 9 7 5 6 5 4 5 2 2 2 3 7 8 11 12 12 11 10 11 12 12 12 13 15 16 16 16 16 17 18 19 20 22 25 26 24 26 24
3 5 6 10 10 9 9 8 8 8 7 6 5 3 1 1 4 7 10 10 10 9 8 10 10 11 12 12 13 13 12 14 15 15 17 18 18 20 21 23 23 25 24
1 2 13 13 12 9 11 10 8 8 8 9 9 7 5 3 5 9 10 7 7 7 8 8 9 9 10 12 13 13 14 11 13 14 14 14 15 16 19 24 28 31 31
6 6 9 10 9 7 8 8 9 10 11 11 11 11 8 5 8 11 12 4 4 4 6 6 7 7 9 10 11 13 13 14 13 13 13 12 12 14 16 19 27 31 31
6 6 7 10 13 13 13 13 14 13 13 14 14 11 11 7 8 12 11 6 4 1 3 3 4 6 8 8 9 12 14 15 16 14 14 14 11 14 17 18 22 25 27
24 13 11 10 10 12 15 15 14 13 15 16 12 16 19 14 8 14 12 5 6 2 2 3 3 5 6 7 8 10 12 14 13 12 13 17 19 21 19 21 21 19 18
27 26 20 14 11 12 12 11 11 11 11 9 6 6 11 11 9 14 16 8 2 5 4 2 5 5 4 6 6 9 10 10 10 10 16 18 20 21 20 22 21 18 18
26 27 25 22 18 13 12 12 13 13 14 13 14 11 8 7 10 11 12 8 3 4 9 2 3 4 4 6 8 7 7 7 6 12 16 18 17 18 23 24 25 26 26
26 25 22 21 18 14 13 12 13 13 14 13 14 11 10 10 10 12 14 10 8 4 4 2 2 3 4 5 7 7 5 6 5 8 11 13 17 19 23 23 25 24 24
25 24 23 22 19 16 14 14 17 15 13 12 11 11 11 10 9 12 16 13 9 9 7 6 5 4 3 3 4 3 3 3 3 6 13 14 19 19 22 24 23 23 24
24 24 24 22 20 18 15 14 14 17 17 14 13 12 12 9 10 11 16 14 11 12 14 10 6 3 1 3 4 3 6 5 4 8 10 14 13 18 22 22 23 23 24
21 21 22 24 22 20 18 16 17 18 19 19 18 18 15 12 10 13 12 13 13 19 19 9 6 3 2 4 5 4 5 7 7 8 12 13 15 19 21 22 23 24 25
21 23 21 24 24 22 22 22 22 23 24 21 19 18 17 14 11 14 16 14 16 12 9 9 5 0 3 4 4 4 6 10 12 14 15 15 16 19 19 19 23 21 22
19 21 22 24 23 22 22 23 24 22 22 18 16 18 15 13 12 13 13 13 11 11 9 14 4 5 4 2 2 3 5 7 7 7 7 9 13 16 16 19 21 21 21
20 20 21 20 18 19 19 18 21 19 16 17 19 15 15 12 12 14 15 17 13 10 8 6 10 12 7 5 4 5 7 5 5 6 11 13 14 13 15 18 17 17 24
19 19 19 15 15 15 15 18 17 15 10 13 13 15 14 12 10 12 15 16 10 8 7 6 4 4 2 1 2 3 3 4 9 10 12 14 11 11 14 15 16 21 22
19 13 14 13 14 13 18 19 13 7 12 10 11 11 15 12 10 12 15 13 13 9 6 5 4 5 2 1 1 2 6 10 11 11 13 16 17 17 16 16 17 20 23
15 9 9 11 12 14 17 16 8 14 14 5 12 6 13 10 14 17 13 11 9 10 9 8 4 2 1 2 2 3 2 5 7 10 13 16 15 15 17 18 17 17 20
26 8 9 9 7 9 14 17 7 20 16 6 6 7 22 24 16 14 15 12 9 7 9 5 4 3 4 1 3 7 10 9 9 11 13 15 14 12 14 13 14 19 20
21 14 11 9 7 5 6 5 5 9 10 11 7 12 17 19 15 18 15 13 11 8 6 4 3 4 4 2 2 0 4 5 6 8 11 12 12 11 12 14 17 19 17
Wind_Direction
162 158 158 150 142 146 126 123 130 112 98 103 102 97 96 105 95 29 359 359 353 350 352 351 352 345 350 349 352 355 355 355 20 20 22 25 18 16 19 20 33 36 27
165 162 158 151 148 144 145 124 112 109 100 98 97 101 103 98 91 81 72 45 22 353 345 353 2 10 0 360 7 3 7 12 21 15 21 25 20 33 33 31 22 21 29
168 165 164 158 156 151 147 134 124 120 97 96 101 98 99 91 89 72 58 54 54 54 356 331 346 359 7 4 5 12 12 10 28 27 17 30 27 19 16 14 11 15 14
197 180 178 173 169 168 156 150 143 101 93 95 102 96 93 87 74 60 63 64 64 79 80 42 351 4 13 13 21 21 20 24 29 29 35 26 20 22 8 360 354 360 356
277 275 274 259 278 292 295 242 213 223 83 112 96 99 89 83 68 73 80 79 87 79 81 67 30 12 8 8 36 15 9 10 23 21 23 15 7 4 360 358 355 354 353
290 285 281 264 256 259 267 202 180 217 190 155 135 116 97 70 88 87 92 99 95 90 70 55 60 52 38 27 23 19 20 17 14 11 13 11 6 3 360 356 358 355 354
296 284 282 287 270 279 277 196 200 218 220 184 194 154 124 55 112 99 107 104 99 96 78 74 75 57 45 29 28 28 26 23 20 14 11 10 7 4 360 359 1 357 356
314 276 266 262 261 239 255 255 265 260 248 246 264 261 252 18 121 120 120 110 105 95 78 90 77 80 72 64 48 41 43 36 32 26 17 16 16 15 13 11 6 1 358
258 234 309 299 297 269 254 241 257 259 257 258 260 223 202 184 161 149 138 113 100 95 91 87 78 69 53 34 21 31 27 46 35 31 32 33 26 24 17 9 0 356 353
319 265 259 288 283 267 255 255 278 269 259 250 250 240 233 229 176 164 151 119 101 91 100 75 62 66 52 40 32 22 26 22 33 29 24 23 22 20 19 13 1 353 350
335 300 290 291 268 267 276 278 279 267 263 254 253 241 250 233 206 180 169 143 137 133 111 89 61 70 54 46 30 13 13 6 6 12 16 14 20 14 13 10 5 2 359
325 332 320 302 298 291 280 278 269 265 259 268 243 271 265 255 220 192 187 181 158 207 144 118 93 103 70 49 34 19 9 5 11 18 15 17 13 7 10 1 2 4 3
324 320 323 317 301 291 283 271 270 264 267 253 223 133 201 254 225 199 190 183 190 204 277 162 136 120 72 36 41 19 11 14 21 25 6 12 6 4 8 5 7 7 3
323 322 321 319 316 305 291 274 265 259 262 249 257 280 219 229 246 219 202 213 214 264 286 316 117 103 48 26 21 25 24 25 32 8 5 3 7 8 4 4 4 1 357
322 322 323 323 320 310 299 284 267 258 245 247 263 253 224 222 226 211 201 217 233 231 262 299 338 354 2 17 14 21 56 67 58 34 18 11 4 5 1 5 1 359 359
319 321 323 323 321 315 305 298 294 280 270 266 272 254 243 229 214 206 197 196 219 199 246 273 299 315 355 56 35 79 109 111 46 23 8 6 359 2 2 0 1 1 358
320 321 322 322 321 316 307 295 282 288 278 268 260 267 273 246 211 199 192 199 216 206 255 272 297 302 65 80 14 61 23 25 24 16 9 359 5 5 1 1 1 360 360
320 323 322 324 321 317 311 299 287 278 271 263 263 259 261 258 225 196 193 182 203 240 253 268 281 290 107 358 5 23 28 30 28 18 6 5 4 359 1 2 0 360 358
314 319 321 322 323 322 316 306 294 280 271 266 262 260 256 259 213 187 175 181 181 199 219 264 273 232 333 350 21 32 13 4 1 355 353 352 1 360 358 3 1 1 3
315 317 319 321 325 328 328 325 315 294 268 249 244 248 223 235 215 199 196 227 206 214 223 265 265 301 319 43 71 62 20 12 4 358 6 15 6 1 4 2 3 1 4
318 320 322 327 331 336 345 347 339 321 280 260 252 235 208 197 193 202 232 234 221 205 206 216 276 291 313 345 30 28 8 15 5 9 17 7 4 6 7 5 5 9 5
315 317 324 327 329 339 351 341 345 331 281 259 251 223 197 226 210 176 171 172 206 219 183 194 241 278 307 116 51 39 67 20 15 22 11 8 15 14 7 9 13 8 7
308 311 320 322 325 334 344 339 3 23 267 237 231 208 210 229 202 174 165 176 242 229 217 205 239 286 187 116 97 66 4 358 8 17 13 11 12 10 13 11 12 10 7
307 291 313 316 321 336 343 327 16 134 148 181 247 174 163 193 161 162 170 183 185 188 259 268 226 239 263 157 22 18 18 17 39 30 14 8 11 15 14 12 12 14 13
301 256 307 318 312 334 353 303 327 162 213 152 194 182 152 154 153 160 163 169 183 191 174 190 251 180 180 313 1 14 19 29 23 13 10 9 14 18 18 20 21 14 12
309 303 302 313 308 315 337 1 279 149 156 229 156 137 153 159 157 159 160 164 165 171 175 179 199 178 175 186 189 109 54 49 42 27 12 10 15 22 24 23 19 16 19